Showing default

JACKAL-01, 59127

Orbit data source: Space-Track

JACKAL-01, 59127 is a payload satellite owned by True Anomaly (US) in SSO that was launched on Mon, 04 Mar 2024 UTC via an FALCON 9 launch vehicle from the Air Force Western Test Range (AFWTR). Payload-class satellites include a variety of spacecraft equipped with specific instruments for various scientific and technological missions. These include communications satellites like Starlink; space stations such as the ISS; scientific satellites like the Hubble; Earth observation satellites from companies like Planet Labs, Umbra, and HawkEye 360; GPS; miniature CubeSats for education and research; and military/defense satellites.

Loading next visibility...
Identifier
59127, 2024-043AF
Orbit
SSO
Country
Flag of USUS
Related business
Manufacturer
True Anomaly
Mission
Operational Commercial Technology
Bus & Motor
JACKAL, Unknown motor
Mass
275 kg wet, 275 kg dry
Launch date (UTC)
2024-03-04 (2 years ago)
Launch vehicle
FALCON 9
Launch site
Air Force Western Test Range (AFWTR)
Object type
Payload
Rocket body
Debris
Shape & HBR
Box + 2 Pan, 3.0 m
Radar Cross Section
1.240 m², Medium (>0.1 m² and < 1m²)

Expand to show TLE details & history
Last TLE update: 12 hours ago

TLE from 12 hours ago
0 JACKAL-01
1 59127U 24043AF  25296.92942562  .00019245  00000-0  55641-3 0  9995
2 59127  97.5310  69.5747 0008121 352.7869   7.3256 15.35643646 91186
Epoch: 2025-10-23T22:18Z
TLE epoch observation values (Epoch: 2025-10-23T22:18:22.373Z)
Latitude
-0.00003°
Longitude
62.39985°
Altitude
456.609 km
Speed
7.642 km/s
True Right ascension
04h 38m 17s
True Declination
0° 00' 00"
Sunlit
Object was in full shadow at epoch
Visualization orbit readout
Latitude
Unknown
Longitude
Unknown
Altitude
Unknown
Speed
Unknown
Apparent Right ascension
Unknown
Apparent Declination
Unknown
Sunlit
N/A
Visualization observer readout
Local Sidereal Time
05:02:10
Azimuth
Unknown
Elevation
Unknown
Doppler factor
Unknown
Orbital elements
Apogee altitude
461.51 km
Perigee altitude
450.41 km
Semi-major axis
6,834.097 km
Eccentricity
0.00081
Inclination
97.531°
RAAN
69.5747°
Arg. of periapsis
352.7869°
True anomaly
7.33748°
Mean anomaly
7.3256°
Eccentric anomaly
7.33154°
Mean motion
3.84168 °/min
Orbital period
93.71 mins
BSTAR
0.00055641
Loading maneuver chart data...
Computing Atmospheric mass density...
Loading historical data...
Loading historical data...
Loading historical data...
Loading historical data...
Loading historical data...
Loading historical data...
Loading historical data...

Documentation

Showing up to 5 results
|